| time (UTC) | temp C | wind direction | speed KPH | gust KPH | rain 1hr cm | rain 24hr cm | rain mn cm | humidity % | barometer mb |
| 20260505124517 | 10 | 291 | 0.0 | 9.7 | 0.00 | 0.00 | 0.00 | 68 | 1011.4 |
| 20260505123019 | 11 | 350 | 1.6 | 9.7 | 0.00 | 0.00 | 0.00 | 67 | 1011.5 |
| 20260505121515 | 11 | 360 | 3.2 | 11.3 | 0.00 | 0.00 | 0.00 | 70 | 1011.5 |
| 20260505120005 | 11 | 319 | 0.0 | 9.7 | 0.00 | 0.00 | 0.00 | 70 | 1011.5 |
| 20260505114502 | 11 | 338 | 0.0 | 6.4 | 0.00 | 0.00 | 0.00 | 68 | 1011.5 |
| 20260505113007 | 11 | 321 | 1.6 | 11.3 | 0.00 | 0.00 | 0.00 | 68 | 1011.5 |
| 20260505111501 | 11 | 306 | 0.0 | 6.4 | 0.00 | 0.00 | 0.00 | 68 | 1011.4 |
| 20260505101554 | 11 | 342 | 1.6 | 6.4 | 0.00 | 0.00 | 0.00 | 71 | 1011.4 |
| 20260505100043 | 11 | 360 | 0.0 | 8.0 | 0.00 | 0.00 | 0.00 | 72 | 1011.5 |
| 20260505094538 | 11 | 292 | 0.0 | 9.7 | 0.00 | 0.00 | 0.00 | 73 | 1011.5 |
| 20260505093043 | 10 | 9 | 0.0 | 8.0 | 0.00 | 0.00 | 0.00 | 74 | 1011.5 |
| 20260505091541 | 10 | 307 | 0.0 | 6.4 | 0.00 | 0.00 | 0.00 | 74 | 1011.4 |
| 20260505090045 | 11 | 324 | 1.6 | 9.7 | 0.00 | 0.00 | 0.00 | 75 | 1011.4 |
| 20260505084531 | 10 | 313 | 0.0 | 6.4 | 0.00 | 0.00 | 0.00 | 76 | 1011.4 |
| 20260505083028 | 10 | 301 | 0.0 | 3.2 | 0.00 | 0.00 | 0.00 | 75 | 1011.1 |
| 20260505081535 | 10 | 348 | 0.0 | 6.4 | 0.00 | 0.00 | 0.00 | 75 | 1011.2 |
| 20260505080011 | 10 | 360 | 0.0 | 8.0 | 0.00 | 0.00 | 0.00 | 77 | 1011.1 |
| 20260505074510 | 10 | 33 | 0.0 | 4.8 | 0.00 | 0.00 | 0.00 | 79 | 1011.0 |
| 20260505073010 | 9 | 313 | 0.0 | 8.0 | 0.00 | 0.00 | 0.00 | 80 | 1011.0 |
| 20260505071505 | 10 | 300 | 0.0 | 3.2 | 0.00 | 0.00 | 0.00 | 78 | 1010.9 |
| 20260505070003 | 10 | 39 | 0.0 | 3.2 | 0.00 | 0.00 | 0.00 | 75 | 1010.9 |
| 20260505064600 | 9 | 360 | 0.0 | 1.6 | 0.00 | 0.00 | 0.00 | 77 | 1010.9 |
| 20260505063101 | 9 | 315 | 0.0 | 6.4 | 0.00 | 0.00 | 0.00 | 79 | 1010.9 |
| 20260505061601 | 8 | 288 | 0.0 | 0.0 | 0.00 | 0.00 | 0.00 | 81 | 1010.9 |
| 20260505060054 | 8 | 286 | 0.0 | 4.8 | 0.00 | 0.00 | 0.00 | 81 | 1011.0 |
| 20260505054543 | 8 | 281 | 0.0 | 8.0 | 0.00 | 0.00 | 0.00 | 82 | 1010.9 |
| 20260505053040 | 8 | 281 | 0.0 | 1.6 | 0.00 | 0.00 | 0.00 | 83 | 1010.8 |
| 20260505051538 | 8 | 291 | 0.0 | 1.6 | 0.00 | 0.00 | 0.00 | 85 | 1010.8 |
| 20260505050116 | 7 | 265 | 0.0 | 1.6 | 0.00 | 0.00 | 0.00 | 86 | 1010.9 |
| 20260505041547 | 7 | 266 | 0.0 | 0.0 | 0.00 | 0.00 | 0.00 | 86 | 1010.7 |
| 20260505040029 | 7 | 266 | 0.0 | 1.6 | 0.00 | 0.00 | 0.00 | 86 | 1010.6 |
| 20260505034516 | 7 | 259 | 0.0 | 1.6 | 0.00 | 0.00 | 0.00 | 86 | 1010.6 |
| 20260505033014 | 7 | 261 | 0.0 | 1.6 | 0.00 | 0.00 | 0.00 | 87 | 1010.6 |
| 20260505031513 | 7 | 259 | 0.0 | 4.8 | 0.00 | 0.00 | 0.00 | 87 | 1010.6 |
| 20260505030010 | 7 | 267 | 0.0 | 0.0 | 0.00 | 0.00 | 0.00 | 88 | 1010.6 |
| 20260505024508 | 7 | 267 | 0.0 | 6.4 | 0.00 | 0.00 | 0.00 | 88 | 1010.6 |
| 20260505023007 | 7 | 227 | 0.0 | 1.6 | 0.00 | 0.05 | 0.00 | 89 | 1010.7 |
| 20260505021508 | 7 | 227 | 0.0 | 0.0 | 0.00 | 0.05 | 0.00 | 88 | 1010.9 |
| 20260505020009 | 7 | 227 | 0.0 | 0.0 | 0.00 | 0.05 | 0.00 | 88 | 1010.9 |
| 20260505014606 | 7 | 227 | 0.0 | 0.0 | 0.00 | 0.05 | 0.00 | 89 | 1011.0 |
| 20260505013054 | 7 | 226 | 0.0 | 1.6 | 0.00 | 0.05 | 0.00 | 89 | 1011.0 |
| 20260505011600 | 7 | 228 | 0.0 | 0.0 | 0.00 | 0.05 | 0.00 | 89 | 1011.1 |
| 20260505010055 | 7 | 227 | 0.0 | 3.2 | 0.00 | 0.05 | 0.00 | 89 | 1011.0 |
| 20260505004553 | 6 | 219 | 0.0 | 3.2 | 0.00 | 0.05 | 0.00 | 90 | 1011.1 |
| 20260505003052 | 6 | 220 | 0.0 | 1.6 | 0.00 | 0.08 | 0.00 | 90 | 1011.1 |
| 20260505001603 | 6 | 217 | 0.0 | 9.7 | 0.00 | 0.08 | 0.00 | 90 | 1011.1 |
| 20260505000113 | 6 | 292 | 0.0 | 0.0 | 0.00 | 0.08 | 0.00 | 90 | 1011.2 |
| 20260504234553 | 6 | 292 | 0.0 | 0.0 | 0.00 | 0.08 | 0.00 | 90 | 1011.1 |
| 20260504233040 | 6 | 292 | 0.0 | 0.0 | 0.00 | 0.15 | 0.00 | 90 | 1011.2 |
| 20260504231537 | 6 | 315 | 0.0 | 1.6 | 0.00 | 0.15 | 0.00 | 90 | 1011.2 |
| 20260504230036 | 6 | 317 | 0.0 | 0.0 | 0.00 | 0.15 | 0.00 | 90 | 1011.3 |
| 20260504224534 | 7 | 317 | 0.0 | 0.0 | 0.00 | 0.15 | 0.00 | 90 | 1011.3 |
| 20260504223041 | 7 | 317 | 0.0 | 0.0 | 0.00 | 0.33 | 0.00 | 90 | 1011.3 |
| 20260504221536 | 7 | 317 | 0.0 | 0.0 | 0.00 | 0.33 | 0.00 | 90 | 1011.3 |
| 20260504220033 | 7 | 317 | 0.0 | 1.6 | 0.00 | 0.33 | 0.00 | 91 | 1011.3 |
| 20260504214523 | 7 | 317 | 0.0 | 1.6 | 0.00 | 0.33 | 0.00 | 90 | 1011.4 |
| 20260504213043 | 7 | 245 | 0.0 | 0.0 | 0.00 | 0.41 | 0.00 | 90 | 1011.4 |
| 20260504211520 | 6 | 360 | 0.0 | 0.0 | 0.00 | 0.41 | 0.00 | 90 | 1011.4 |
| 20260504210019 | 7 | 246 | 0.0 | 0.0 | 0.00 | 0.41 | 0.00 | 89 | 1011.4 |
| 20260504204517 | 7 | 246 | 0.0 | 0.0 | 0.00 | 0.41 | 0.00 | 88 | 1011.3 |
| 20260504203013 | 7 | 246 | 0.0 | 0.0 | 0.00 | 0.48 | 0.00 | 87 | 1011.3 |
| 20260504201515 | 8 | 246 | 0.0 | 0.0 | 0.00 | 0.48 | 0.00 | 87 | 1011.2 |
| 20260504200010 | 8 | 360 | 0.0 | 0.0 | 0.00 | 0.48 | 0.00 | 86 | 1011.2 |
| 20260504194605 | 8 | 360 | 0.0 | 1.6 | 0.00 | 0.48 | 0.00 | 84 | 1011.0 |
| 20260504193101 | 8 | 360 | 0.0 | 0.0 | 0.00 | 0.48 | 0.00 | 82 | 1011.1 |
| 20260504191551 | 10 | 360 | 0.0 | 0.0 | 0.00 | 0.48 | 0.00 | 79 | 1010.9 |
| 20260504190100 | 10 | 360 | 0.0 | 1.6 | 0.00 | 0.48 | 0.00 | 77 | 1010.9 |
| 20260504184553 | 11 | 360 | 0.0 | 0.0 | 0.00 | 0.48 | 0.00 | 75 | 1010.9 |
| 20260504183046 | 11 | 244 | 0.0 | 1.6 | 0.00 | 0.48 | 0.00 | 74 | 1010.8 |
| 20260504181545 | 11 | 360 | 0.0 | 4.8 | 0.00 | 0.48 | 0.00 | 72 | 1010.7 |
| 20260504180047 | 12 | 360 | 1.6 | 8.0 | 0.00 | 0.48 | 0.00 | 67 | 1010.6 |
| 20260504174531 | 12 | 360 | 3.2 | 12.9 | 0.00 | 0.48 | 0.00 | 60 | 1010.5 |
| 20260504173042 | 12 | 360 | 4.8 | 14.5 | 0.00 | 0.48 | 0.00 | 55 | 1010.6 |
| 20260504171532 | 13 | 360 | 4.8 | 14.5 | 0.00 | 0.48 | 0.00 | 53 | 1010.6 |